Regional Weather Roundup
Issued by NWS

Home | Current Version | Previous Version | Graphics & Text | Print | Product List | Glossary On
Versions: 1 2 3 4 5 6 7 8 9 10 11 12 13 14 15 16 17 18 19 20 21 22 23 24 25 26 27 28
000
ASUS45 KCYS 231010
RWRWY

WYOMING REGIONAL WEATHER ROUNDUP
NATIONAL WEATHER SERVICE CHEYENNE WY
400 AM MDT MON APR 23 2018

NOTE:  "FAIR" INDICATES FEW OR NO CLOUDS BELOW 12,000 FEET
WITH NO SIGNIFICANT WEATHER AND/OR OBSTRUCTIONS TO VISIBILITY.

WYZ001-231100-
YELLOWSTONE NATIONAL PARK

CITY           SKY/WX    TMP DP  RH WIND       PRES   REMARKS
LK YELLOWSTONE   N/A     34  31  88 NW3       30.09F
W YELLOWSTONE  NOT AVBL

$$
WYZ002>013-054>058-071-098>099-231100-
NORTHERN WYOMING

CITY           SKY/WX    TMP DP  RH WIND       PRES   REMARKS
JACKSON        LGT RAIN  41  32  70 W10G24    30.08R
CODY           CLOUDY    44  28  53 NW17G23   30.08R
GREYBULL       FAIR      48  32  53 W18       29.96S
WORLAND        FAIR      48  32  53 NW9       29.99R
SHERIDAN       FAIR      47  34  60 W9        30.04R
BUFFALO        FAIR      45  36  70 NW12      30.04R
GILLETTE       FAIR      43  36  76 S6        30.03S
HULETT         FAIR      43  36  75 E5        30.08S
NEWCASTLE      FAIR      46  34  61 E9        30.08S

$$
WYZ014>020-022>026-101>103-231100-
CENTRAL WYOMING

CITY           SKY/WX    TMP DP  RH WIND       PRES   REMARKS
BIG PINEY      MOCLDY    30  20  66 NW5       30.03R WCI  25
PINEDALE       FAIR      32  25  74 W7        30.05R WCI  26
DUBOIS         FAIR      32  25  74 NW10      30.02S WCI  24
LANDER         FAIR      44  26  49 W3        29.95S
RIVERTON       FAIR      43  29  57 N8        29.96R
CASPER         FAIR      38  33  82 NE3       30.02S
DOUGLAS        FAIR      39  37  92 SE9       30.04S WCI  33

$$
WYZ021-027>030-104>119-231100-
SOUTHERN WYOMING

CITY           SKY/WX    TMP DP  RH WIND       PRES   REMARKS
EVANSTON       FAIR      45  27  49 W9        30.05S
KEMMERER       FAIR      37  27  65 NW9       30.07R WCI  31
FORT BRIDGER   FAIR      49  24  37 W10       30.07R
ROCK SPRINGS   FAIR      48  26  42 E8        30.02F
DIXON          FAIR      37  28  71 CALM      30.10R
RAWLINS          N/A    N/A N/A N/A MISG      30.07S
SARATOGA       FAIR      41  30  65 SE13      30.10R
LARAMIE        FAIR      36  32  85 S12       30.10S WCI  28
CHEYENNE       FAIR      36  34  92 CALM      30.10F
TORRINGTON     FAIR      36  35  96 E10       30.08S WCI  28
PINE BLUFFS    FAIR      30  30 100 MISG      30.11S

$$




USA.gov is the U.S. government's official web portal to all federal, state and local government web resources and services.